Regional Weather Roundup
Issued by NWS Northern Indiana

Home | Current Version | Previous Version | Text Only | Print | Product List | Glossary Off
Versions: 1 2 3 4 5 6 7 8 9 10 11 12 13 14 15 16 17 18 19 20 21 22 23 24 25 26 27 28 29 30 31 32 33 34 35 36 37 38 39 40 41 42 43 44 45 46 47 48 49 50

000
ASUS43 KIWX 240410
RWRIWX

KIWX WEATHER ROUNDUP
NATIONAL WEATHER SERVICE NORTHERN INDIANA
1100 PM EST THU NOV 23 2017

NOTE: "FAIR" INDICATES FEW OR NO CLOUDS BELOW 12,000 FEET WITH NO
SIGNIFICANT WEATHER AND/OR OBSTRUCTIONS TO VISIBILITY.

* THESE STATIONS ARE NOT UNDER NWS QUALITY CONTROL. THEY ALSO MAY NOT
  REPORT WEATHER SUCH AS PRECIPITATION OR FOG.

INZ001>027-240500-
NORTHERN INDIANA

CITY           SKY/WX    TMP DP  RH WIND       PRES   REMARKS
GARY*          CLEAR     37  28  71 S5        29.94S
VALPARAISO     CLEAR     35  27  72 S5        29.95R WCI  31
MICHIGAN CITY* CLEAR     36  28  75 S7        29.95R
LAPORTE*       CLEAR     32  26  78 S3        29.95R
KNOX*          CLEAR     32  27  80 CALM      29.95S
SOUTH BEND     CLEAR     33  25  72 S7        29.95S WCI  27
GOSHEN         CLEAR     35  23  61 S9        29.95S WCI  28
MONTICELLO*    CLEAR     34  23  64 S6        29.96S WCI  29
LOGANSPORT*    CLEAR     32  27  80 S7        29.97F WCI  26
ROCHESTER*     CLEAR     37  27  65 SW7       29.96S
WARSAW*        CLEAR     34  23  64 CALM      29.96S
AUBURN*        CLEAR     32  25  74 CALM      29.98S
FORT WAYNE     CLEAR     32  26  78 SW7       29.98S WCI  26
HUNTINGTON*    CLEAR     33  22  64 CALM      29.98R
PERU/GRISSOM   CLEAR     32  24  73 S8        29.96S WCI  25
MARION*        CLEAR     30  26  83 S5        29.99S WCI  26

$$
INZ028>050-240500-
CENTRAL INDIANA

CITY           SKY/WX    TMP DP  RH WIND       PRES   REMARKS
LAFAYETTE      CLEAR     30  24  78 W3        29.97F
KOKOMO*        CLEAR     34  23  64 S8        29.98S WCI  27
MUNCIE*        CLEAR     36  24  62 S3        29.99F
INDIANAPOLIS   CLEAR     33  21  61 S6        30.00F WCI  28

$$
MIZ043>046-050>051-056>058-064>065-071>073-077>080-240500-
SOUTHWEST LOWER MICHIGAN

CITY           SKY/WX    TMP DP  RH WIND       PRES   REMARKS
BATTLE CREEK   CLEAR     34  24  67 S14       29.92F WCI  25
BENTON HARBOR  CLEAR     36  26  67 S6        29.93S
COLDWATER*     CLEAR     32  22  66 CALM      29.95F
HILLSDALE*     CLEAR     30  21  69 S5        29.94F WCI  25
HOLLAND        CLEAR     33  25  72 S7        29.90F WCI  27
GRAND RAPIDS   CLOUDY    33  26  75 S9        29.89F WCI  25
KALAMAZOO      CLEAR     33  24  69 S8        29.92F WCI  26
STURGIS*       CLEAR     32  24  72 S3        29.94F
THREE RIVERS*  FAIR      32  26  78 S3        29.95S

$$
OHZ001>008-015>018-024>025-240500-
NORTHWEST OHIO

CITY           SKY/WX    TMP DP  RH WIND       PRES   REMARKS
WAUSEON*       FAIR      28  28 100 S7        29.98S WCI  21
DEFIANCE       CLEAR     30  23  75 CALM      29.99S
FINDLAY        CLEAR     32  23  69 S7        29.99F WCI  26
TOLEDO EXPRESS CLEAR     29  26  89 CALM      29.99F
TOLEDO METCALF CLOUDY    33  27  78 S7        30.00F WCI  27
LIMA           CLEAR     31  25  78 S7        29.99F WCI  24

$$
AND FOR LAKE MICHIGAN COASTAL AND OPEN LAKE BUOY OBSERVATIONS

STATION/POSITION TEMP    WIND        PRES    VSBY  WAVE
                 AIR SEA DIR/SP/G                  HT/PER
                 (F)     (DEG/KT/KT) (MB)    (MI)  (FT/S)
CALUMET HARBOR    38     190/  4/  5 1012.8R
MICHIGAN CITY     38     170/ 12/ 13   N/A
BURNS HARBOR      38     190/  9/ 11 1014.2
SAINT JOSEPH      37     160/  5/ 10 1013.5
SOUTH LAKE BUOY   44 47  250/ 14/ 16 1013.0F         1/ 3

$$
&&



USA.gov is the U.S. government's official web portal to all federal, state and local government web resources and services.